Date String (YYYY-MM-DD hh:mm:ss) UTC,Instrument flags,absolute air pressure of the measurement (hPa),sample flow rate (lpm),inlet stack bypass flow (lpm),air temperature of the measurement (°C),ambient temperature measured by the external sensor (°C),aerosol sample conditioner tube jacket temperature (°C),OPC LED temperature (°C),internal box temperature (°C),relative humidity of the measurement (%),span deviation,mass concentration of particles derived from Lorenz-Mie calculation of OPC scattering (μg/m³),mass concentration of particles derived from Lorenz-Mie calculation of OPC scattering (μg/m³),mass concentration of particles derived from Lorenz-Mie calculation of OPC scattering (μg/m³)
DateTimeUTC,F1_M11,P_M11,Q1_M11,Q2_M11,T1_M11,T2_M11,T3_M11,T4_M11,T5_M11,U1_M11,ZSPAN_M11,X2_M11,X0_M11,X1_M11
2023-08-14 03:00:00,SystemResetWarning,0839.7,5.00,000.00,029.6,028.6,000.0,038.0,031.3,24.7,0000.0,0003.94,0010.91,0003.31
2023-08-14 03:01:00,SystemResetWarning,0839.8,5.00,000.00,029.6,028.6,000.0,038.0,031.3,24.7,0000.0,0003.95,0011.17,0003.30
2023-08-14 03:02:00,SystemResetWarning,0839.8,5.01,000.00,029.7,028.7,000.0,038.1,031.4,24.8,0000.0,0003.98,0011.54,0003.29
2023-08-14 03:03:00,SystemResetWarning,0839.7,4.99,000.00,029.7,027.6,000.0,038.0,031.2,24.6,0000.0,0003.96,0012.25,0003.27
2023-08-14 03:04:00,SystemResetWarning,0839.8,5.01,000.00,029.6,025.8,000.0,037.9,030.9,24.7,0000.0,0003.94,0013.38,0003.26
2023-08-14 03:05:00,SystemResetWarning,0839.7,5.01,000.00,029.5,025.5,000.0,037.8,030.7,24.9,0000.0,0003.96,0012.57,0003.25
2023-08-14 03:06:00,SystemResetWarning,0839.8,5.00,000.00,029.4,025.7,000.0,037.8,030.6,25.1,0000.0,0003.98,0013.18,0003.25
2023-08-14 03:07:00,SystemResetWarning,0839.7,5.00,000.00,029.3,026.1,000.0,037.9,030.7,25.0,0000.0,0003.98,0012.79,0003.25
2023-08-14 03:08:00,SystemResetWarning,0839.8,5.01,000.00,029.3,026.5,000.0,037.9,030.8,25.0,0000.0,0003.97,0012.18,0003.24
2023-08-14 03:09:00,SystemResetWarning,0839.8,4.99,000.00,029.3,026.8,000.0,037.9,030.8,25.0,0000.0,0003.97,0011.98,0003.23
2023-08-14 03:10:00,SystemResetWarning,0839.9,4.99,000.00,029.3,027.2,000.0,037.9,030.9,25.0,0000.0,0003.97,0011.62,0003.24
2023-08-14 03:11:00,SystemResetWarning,0839.9,5.00,000.00,029.4,027.4,000.0,037.9,031.0,25.0,0000.0,0004.00,0011.13,0003.23
2023-08-14 03:12:00,SystemResetWarning,0839.9,5.00,000.00,029.4,027.7,000.0,037.9,031.0,25.1,0000.0,0003.96,0010.81,0003.23
2023-08-14 03:13:00,SystemResetWarning,0840.0,5.00,000.00,029.4,027.8,000.0,037.9,031.1,25.1,0000.0,0003.91,0010.76,0003.23
2023-08-14 03:14:00,SystemResetWarning,0840.1,5.00,000.00,029.4,028.0,000.0,038.0,031.1,24.9,0000.0,0003.94,0010.48,0003.24
2023-08-14 03:15:00,SystemResetWarning,0840.1,5.00,000.00,029.5,028.1,000.0,038.0,031.2,24.7,0000.0,0004.00,0009.84,0003.26
2023-08-14 03:16:00,SystemResetWarning,0840.2,5.00,000.00,029.5,028.2,000.0,038.0,031.2,24.7,0000.0,0004.00,0010.18,0003.26
2023-08-14 03:17:00,SystemResetWarning,0840.2,5.00,000.00,029.5,028.3,000.0,038.0,031.2,24.7,0000.0,0004.02,0009.95,0003.26
2023-08-14 03:18:00,SystemResetWarning,0840.1,5.00,000.00,029.6,028.4,000.0,038.0,031.3,24.7,0000.0,0004.03,0012.06,0003.26
2023-08-14 03:19:00,SystemResetWarning,0840.2,5.00,000.00,029.6,028.5,000.0,038.1,031.3,24.6,0000.0,0004.04,0012.33,0003.26
2023-08-14 03:20:00,SystemResetWarning,0840.3,4.99,000.00,029.6,028.5,000.0,038.1,031.3,24.7,0000.0,0004.06,0012.42,0003.26
2023-08-14 03:21:00,SystemResetWarning,0840.3,4.99,000.00,029.7,028.6,000.0,038.1,031.4,24.6,0000.0,0004.08,0012.50,0003.25
2023-08-14 03:22:00,SystemResetWarning,0840.4,5.00,000.00,029.7,028.7,000.0,038.1,031.4,24.5,0000.0,0004.05,0012.43,0003.26
2023-08-14 03:23:00,SystemResetWarning,0840.4,5.01,000.00,029.7,028.7,000.0,038.2,031.4,24.4,0000.0,0004.05,0012.47,0003.27
2023-08-14 03:24:00,SystemResetWarning,0840.4,5.00,000.00,029.8,028.3,000.0,038.1,031.3,24.4,0000.0,0004.05,0012.79,0003.26
2023-08-14 03:25:00,SystemResetWarning,0840.4,5.00,000.00,029.7,026.2,000.0,038.0,031.0,24.5,0000.0,0004.06,0012.66,0003.26
2023-08-14 03:26:00,SystemResetWarning,0840.4,5.02,000.00,029.6,025.4,000.0,037.9,030.8,24.6,0000.0,0004.01,0012.26,0003.26
2023-08-14 03:27:00,SystemResetWarning,0840.4,5.00,000.00,029.5,025.6,000.0,037.9,030.6,24.8,0000.0,0004.02,0011.98,0003.27
2023-08-14 03:28:00,SystemResetWarning,0840.4,4.99,000.00,029.4,025.9,000.0,037.9,030.7,24.8,0000.0,0003.98,0011.79,0003.27
2023-08-14 03:29:00,SystemResetWarning,0840.4,5.00,000.00,029.4,026.3,000.0,038.0,030.8,24.6,0000.0,0003.95,0010.24,0003.28
2023-08-14 03:30:00,SystemResetWarning,0840.5,5.00,000.00,029.4,026.7,000.0,038.0,030.8,24.2,0000.0,0003.98,0009.75,0003.28
2023-08-14 03:31:00,SystemResetWarning,0840.5,4.99,000.00,029.4,027.0,000.0,038.0,030.9,24.1,0000.0,0003.96,0009.67,0003.30
2023-08-14 03:32:00,SystemResetWarning,0840.5,5.00,000.00,029.4,027.3,000.0,038.0,031.0,23.7,0000.0,0003.99,0010.16,0003.31
2023-08-14 03:33:00,SystemResetWarning,0840.5,5.00,000.00,029.4,027.6,000.0,038.0,031.0,23.4,0000.0,0004.02,0010.42,0003.32
2023-08-14 03:34:00,SystemResetWarning,0840.5,5.01,000.00,029.4,027.8,000.0,038.0,031.1,23.3,0000.0,0004.04,0010.40,0003.32
2023-08-14 03:35:00,SystemResetWarning,0840.6,5.01,000.00,029.5,027.9,000.0,038.0,031.1,23.2,0000.0,0004.08,0010.47,0003.35
2023-08-14 03:36:00,SystemResetWarning,0840.6,4.99,000.00,029.5,028.1,000.0,038.0,031.1,23.2,0000.0,0004.06,0010.03,0003.36
2023-08-14 03:37:00,SystemResetWarning,0840.6,4.99,000.00,029.5,028.2,000.0,038.0,031.2,22.9,0000.0,0004.07,0009.92,0003.36
2023-08-14 03:38:00,SystemResetWarning,0840.6,5.00,000.00,029.5,028.3,000.0,038.0,031.2,22.7,0000.0,0004.08,0009.66,0003.37
2023-08-14 03:39:00,SystemResetWarning,0840.6,5.00,000.00,029.6,028.4,000.0,038.1,031.2,22.6,0000.0,0004.11,0009.49,0003.38
2023-08-14 03:40:00,SystemResetWarning,0840.7,5.01,000.00,029.6,028.4,000.0,038.1,031.3,22.5,0000.0,0004.17,0010.25,0003.40
2023-08-14 03:41:00,SystemResetWarning,0840.7,5.01,000.00,029.6,028.5,000.0,038.1,031.3,22.6,0000.0,0004.22,0010.79,0003.42
2023-08-14 03:42:00,SystemResetWarning,0840.7,5.01,000.00,029.7,028.6,000.0,038.1,031.3,22.7,0000.0,0004.24,0011.42,0003.43
2023-08-14 03:43:00,SystemResetWarning,0840.8,5.00,000.00,029.7,028.6,000.0,038.1,031.4,22.7,0000.0,0004.26,0011.67,0003.44
2023-08-14 03:44:00,SystemResetWarning,0840.7,4.99,000.00,029.7,028.7,000.0,038.2,031.4,22.6,0000.0,0004.23,0011.54,0003.45
2023-08-14 03:45:00,SystemResetWarning,0840.7,4.99,000.00,029.7,028.7,000.0,038.2,031.4,22.6,0000.0,0004.24,0011.79,0003.46
2023-08-14 03:46:00,SystemResetWarning,0840.8,4.99,000.00,029.8,028.7,000.0,038.2,031.4,22.5,0000.0,0004.24,0011.44,0003.46
2023-08-14 03:47:00,SystemResetWarning,0840.7,4.99,000.00,029.8,027.1,000.0,038.1,031.2,22.4,0000.0,0004.27,0012.08,0003.47
2023-08-14 03:48:00,SystemResetWarning,0840.7,5.01,000.00,029.7,025.7,000.0,038.0,030.9,22.4,0000.0,0004.29,0012.36,0003.47
2023-08-14 03:49:00,SystemResetWarning,0840.7,5.01,000.00,029.6,025.5,000.0,037.9,030.8,22.1,0000.0,0004.29,0012.37,0003.46
2023-08-14 03:50:00,SystemResetWarning,0840.7,5.00,000.00,029.5,025.8,000.0,038.0,030.7,21.9,0000.0,0004.31,0012.48,0003.46
2023-08-14 03:51:00,SystemResetWarning,0840.8,5.00,000.00,029.4,026.2,000.0,038.0,030.8,22.0,0000.0,0004.27,0011.60,0003.45
2023-08-14 03:52:00,SystemResetWarning,0840.8,5.01,000.00,029.4,026.6,000.0,038.0,030.9,22.0,0000.0,0004.23,0010.99,0003.45
2023-08-14 03:53:00,SystemResetWarning,0840.8,4.99,000.00,029.4,026.9,000.0,038.0,030.9,22.0,0000.0,0004.25,0010.78,0003.45
2023-08-14 03:54:00,SystemResetWarning,0840.8,5.00,000.00,029.4,027.2,000.0,038.0,031.0,21.9,0000.0,0004.21,0010.19,0003.46
2023-08-14 03:55:00,SystemResetWarning,0840.8,5.00,000.00,029.4,027.5,000.0,038.0,031.0,21.8,0000.0,0004.22,0009.85,0003.46
2023-08-14 03:56:00,SystemResetWarning,0840.8,5.00,000.00,029.5,027.7,000.0,038.0,031.1,21.8,0000.0,0004.24,0009.74,0003.46
2023-08-14 03:57:00,SystemResetWarning,0840.8,5.00,000.00,029.5,027.9,000.0,038.0,031.1,21.8,0000.0,0004.25,0009.75,0003.45
2023-08-14 03:58:00,SystemResetWarning,0840.8,5.00,000.00,029.5,028.0,000.0,038.1,031.2,21.8,0000.0,0004.23,0009.63,0003.44
2023-08-14 03:59:00,SystemResetWarning,0840.8,5.00,000.00,029.5,028.2,000.0,038.1,031.2,21.8,0000.0,0004.21,0009.42,0003.44
